| time (UTC) | temp F | wind direction | speed knots | gust knots | rain 1hr in | rain 24hr in | rain mn in | humidity % | barometer mb |
| 20260509215013 | 65 | 224 | 7.8 | 18.2 | 0.00 | 0.11 | 0.11 | 40 | 1002.4 |
| 20260509214533 | 65 | 194 | 7.8 | 18.2 | 0.00 | 0.11 | 0.11 | 40 | 1002.3 |
| 20260509214019 | 65 | 221 | 8.7 | 18.2 | 0.00 | 0.11 | 0.11 | 39 | 1002.2 |
| 20260509213514 | 66 | 290 | 7.8 | 20.9 | 0.00 | 0.11 | 0.11 | 39 | 1002.3 |
| 20260509213031 | 66 | 266 | 9.6 | 20.9 | 0.00 | 0.11 | 0.11 | 39 | 1002.3 |
| 20260509212516 | 66 | 279 | 7.8 | 22.6 | 0.00 | 0.11 | 0.11 | 39 | 1002.4 |
| 20260509212015 | 66 | 229 | 13.0 | 22.6 | 0.00 | 0.11 | 0.11 | 39 | 1002.1 |
| 20260509211530 | 66 | 223 | 7.8 | 17.4 | 0.00 | 0.11 | 0.11 | 39 | 1002.2 |
| 20260509211014 | 66 | 240 | 8.7 | 18.2 | 0.00 | 0.11 | 0.11 | 39 | 1002.2 |
| 20260509210516 | 66 | 229 | 8.7 | 18.2 | 0.00 | 0.11 | 0.11 | 40 | 1002.1 |
| 20260509210031 | 66 | 231 | 4.3 | 15.6 | 0.00 | 0.11 | 0.11 | 42 | 1002.0 |
| 20260509205514 | 65 | 226 | 7.8 | 20.0 | 0.00 | 0.11 | 0.11 | 41 | 1002.0 |
| 20260509205017 | 65 | 213 | 9.6 | 20.0 | 0.00 | 0.11 | 0.11 | 43 | 1002.1 |
| 20260509204532 | 65 | 217 | 7.0 | 17.4 | 0.00 | 0.11 | 0.11 | 42 | 1001.8 |
| 20260509204015 | 64 | 225 | 7.0 | 16.5 | 0.00 | 0.11 | 0.11 | 43 | 1002.1 |
| 20260509203515 | 64 | 231 | 7.8 | 18.2 | 0.00 | 0.11 | 0.11 | 45 | 1002.1 |
| 20260509203032 | 64 | 278 | 8.7 | 20.0 | 0.00 | 0.11 | 0.11 | 44 | 1002.2 |
| 20260509202513 | 63 | 245 | 8.7 | 20.0 | 0.00 | 0.11 | 0.11 | 44 | 1002.3 |
| 20260509202018 | 63 | 210 | 11.3 | 20.0 | 0.00 | 0.11 | 0.11 | 44 | 1002.5 |
| 20260509201532 | 64 | 236 | 7.8 | 17.4 | 0.00 | 0.11 | 0.11 | 46 | 1002.6 |
| 20260509201014 | 64 | 266 | 6.1 | 17.4 | 0.00 | 0.11 | 0.11 | 44 | 1002.5 |
| 20260509200516 | 64 | 249 | 7.8 | 17.4 | 0.00 | 0.11 | 0.11 | 45 | 1002.7 |
| 20260509200040 | 64 | 288 | 7.8 | 16.5 | 0.00 | 0.11 | 0.11 | 45 | 1002.9 |
| 20260509195520 | 64 | 248 | 6.1 | 17.4 | 0.00 | 0.11 | 0.11 | 46 | 1002.9 |
| 20260509195014 | 65 | 273 | 6.1 | 17.4 | 0.00 | 0.11 | 0.11 | 47 | 1003.2 |
| 20260509194531 | 64 | 278 | 4.3 | 17.4 | 0.00 | 0.11 | 0.11 | 49 | 1002.9 |
| 20260509194014 | 64 | 248 | 4.3 | 14.8 | 0.00 | 0.11 | 0.11 | 50 | 1002.8 |
| 20260509193521 | 64 | 279 | 3.5 | 12.2 | 0.00 | 0.11 | 0.11 | 53 | 1002.8 |
| 20260509193032 | 64 | 293 | 4.3 | 10.4 | 0.01 | 0.11 | 0.11 | 56 | 1002.8 |
| 20260509192513 | 63 | 233 | 2.6 | 10.4 | 0.06 | 0.11 | 0.11 | 65 | 1002.8 |
| 20260509192017 | 62 | 261 | 2.6 | 7.8 | 0.10 | 0.11 | 0.11 | 68 | 1002.8 |
| 20260509191532 | 61 | 0 | 0.0 | 5.2 | 0.11 | 0.11 | 0.11 | 75 | 1002.8 |
| 20260509191017 | 60 | 200 | 0.0 | 6.1 | 0.11 | 0.11 | 0.11 | 77 | 1002.6 |
| 20260509190514 | 59 | 0 | 0.9 | 7.0 | 0.11 | 0.11 | 0.11 | 77 | 1002.7 |
| 20260509190030 | 58 | 208 | 3.5 | 7.8 | 0.11 | 0.11 | 0.11 | 77 | 1002.9 |
| 20260509185513 | 58 | 193 | 2.6 | 10.4 | 0.11 | 0.11 | 0.11 | 82 | 1002.8 |
| 20260509185015 | 57 | 268 | 3.5 | 10.4 | 0.11 | 0.11 | 0.11 | 82 | 1002.9 |
| 20260509184538 | 56 | 230 | 1.7 | 7.0 | 0.11 | 0.11 | 0.11 | 84 | 1002.8 |
| 20260509184014 | 55 | 228 | 1.7 | 12.2 | 0.11 | 0.11 | 0.11 | 83 | 1002.7 |
| 20260509183516 | 55 | 285 | 1.7 | 12.2 | 0.11 | 0.11 | 0.11 | 81 | 1002.5 |
| 20260509183031 | 55 | 209 | 4.3 | 23.5 | 0.08 | 0.08 | 0.08 | 77 | 1003.1 |
| 20260509182515 | 58 | 223 | 5.2 | 23.5 | 0.05 | 0.05 | 0.05 | 69 | 1003.0 |
| 20260509182014 | 62 | 188 | 8.7 | 19.1 | 0.00 | 0.00 | 0.00 | 58 | 1003.0 |
| 20260509181531 | 65 | 271 | 5.2 | 15.6 | 0.00 | 0.00 | 0.00 | 49 | 1002.2 |
| 20260509181015 | 65 | 215 | 7.8 | 18.2 | 0.00 | 0.00 | 0.00 | 49 | 1001.4 |
| 20260509180514 | 65 | 229 | 7.8 | 18.2 | 0.00 | 0.00 | 0.00 | 50 | 1001.2 |
| 20260509180032 | 66 | 238 | 10.4 | 18.2 | 0.00 | 0.00 | 0.00 | 48 | 1001.2 |
| 20260509175516 | 66 | 224 | 8.7 | 18.2 | 0.00 | 0.00 | 0.00 | 49 | 1001.3 |
| 20260509175015 | 66 | 208 | 8.7 | 17.4 | 0.00 | 0.00 | 0.00 | 48 | 1001.3 |
| 20260509174535 | 66 | 235 | 10.4 | 19.1 | 0.00 | 0.00 | 0.00 | 48 | 1001.4 |
| 20260509174014 | 66 | 227 | 8.7 | 20.9 | 0.00 | 0.00 | 0.00 | 49 | 1001.4 |
| 20260509173514 | 66 | 245 | 8.7 | 26.1 | 0.00 | 0.00 | 0.00 | 48 | 1001.6 |
| 20260509173031 | 66 | 232 | 10.4 | 26.1 | 0.00 | 0.00 | 0.00 | 47 | 1001.6 |
| 20260509172513 | 66 | 246 | 6.1 | 14.8 | 0.00 | 0.00 | 0.00 | 51 | 1001.7 |
| 20260509172016 | 66 | 210 | 4.3 | 14.8 | 0.00 | 0.00 | 0.00 | 51 | 1001.8 |
| 20260509171533 | 66 | 181 | 6.1 | 18.2 | 0.00 | 0.00 | 0.00 | 51 | 1001.6 |
| 20260509171014 | 66 | 226 | 7.8 | 18.2 | 0.00 | 0.00 | 0.00 | 51 | 1001.6 |
| 20260509170516 | 66 | 223 | 8.7 | 18.2 | 0.00 | 0.00 | 0.00 | 51 | 1001.6 |
| 20260509170033 | 66 | 229 | 6.1 | 17.4 | 0.00 | 0.00 | 0.00 | 51 | 1001.7 |
| 20260509165513 | 66 | 181 | 7.8 | 17.4 | 0.00 | 0.00 | 0.00 | 51 | 1001.7 |
| 20260509165013 | 66 | 200 | 6.1 | 16.5 | 0.00 | 0.00 | 0.00 | 51 | 1001.8 |
| 20260509164529 | 65 | 207 | 8.7 | 16.5 | 0.00 | 0.00 | 0.00 | 52 | 1001.8 |
| 20260509164014 | 65 | 229 | 7.8 | 16.5 | 0.00 | 0.00 | 0.00 | 55 | 1001.9 |
| 20260509163513 | 65 | 213 | 5.2 | 16.5 | 0.00 | 0.00 | 0.00 | 55 | 1001.9 |
| 20260509163041 | 64 | 195 | 6.1 | 16.5 | 0.00 | 0.00 | 0.00 | 58 | 1001.9 |
| 20260509162516 | 64 | 139 | 8.7 | 16.5 | 0.00 | 0.00 | 0.00 | 57 | 1001.9 |
| 20260509162015 | 64 | 147 | 6.1 | 16.5 | 0.00 | 0.00 | 0.00 | 60 | 1002.2 |
| 20260509161531 | 63 | 200 | 7.8 | 16.5 | 0.00 | 0.00 | 0.00 | 60 | 1002.2 |
| 20260509161014 | 63 | 202 | 6.1 | 15.6 | 0.00 | 0.00 | 0.00 | 62 | 1002.3 |
| 20260509160516 | 62 | 158 | 4.3 | 11.3 | 0.00 | 0.00 | 0.00 | 63 | 1002.3 |
| 20260509160032 | 62 | 210 | 2.6 | 12.2 | 0.00 | 0.00 | 0.00 | 64 | 1002.4 |
| 20260509155514 | 62 | 196 | 4.3 | 12.2 | 0.00 | 0.00 | 0.00 | 64 | 1002.5 |
| 20260509155018 | 62 | 172 | 3.5 | 15.6 | 0.00 | 0.00 | 0.00 | 65 | 1002.5 |
| 20260509154540 | 62 | 215 | 5.2 | 15.6 | 0.00 | 0.00 | 0.00 | 66 | 1002.4 |
| 20260509154016 | 61 | 184 | 7.8 | 15.6 | 0.00 | 0.00 | 0.00 | 67 | 1002.5 |
| 20260509153514 | 61 | 191 | 6.1 | 10.4 | 0.00 | 0.00 | 0.00 | 68 | 1002.6 |
| 20260509153032 | 60 | 187 | 4.3 | 10.4 | 0.00 | 0.00 | 0.00 | 69 | 1002.6 |
| 20260509152514 | 60 | 187 | 4.3 | 13.0 | 0.00 | 0.00 | 0.00 | 70 | 1002.8 |
| 20260509152021 | 59 | 168 | 7.0 | 13.0 | 0.00 | 0.00 | 0.00 | 71 | 1002.7 |
| 20260509151529 | 59 | 189 | 4.3 | 11.3 | 0.00 | 0.00 | 0.00 | 72 | 1002.8 |
| 20260509151015 | 59 | 177 | 5.2 | 11.3 | 0.00 | 0.00 | 0.00 | 72 | 1002.9 |
| 20260509150512 | 58 | 164 | 3.5 | 9.6 | 0.00 | 0.00 | 0.00 | 74 | 1003.0 |
| 20260509150029 | 58 | 174 | 4.3 | 9.6 | 0.00 | 0.00 | 0.00 | 76 | 1002.9 |
| 20260509145516 | 57 | 181 | 2.6 | 7.0 | 0.00 | 0.00 | 0.00 | 79 | 1003.1 |
| 20260509145013 | 56 | 139 | 3.5 | 7.0 | 0.00 | 0.00 | 0.00 | 80 | 1003.2 |
| 20260509144532 | 56 | 165 | 2.6 | 5.2 | 0.00 | 0.00 | 0.00 | 82 | 1003.3 |
| 20260509144014 | 55 | 200 | 1.7 | 4.3 | 0.00 | 0.00 | 0.00 | 84 | 1003.2 |
| 20260509143514 | 55 | 202 | 1.7 | 4.3 | 0.00 | 0.00 | 0.00 | 84 | 1003.2 |
| 20260509143044 | 55 | 136 | 0.9 | 4.3 | 0.00 | 0.00 | 0.00 | 84 | 1003.5 |
| 20260509142514 | 54 | 136 | 0.0 | 1.7 | 0.00 | 0.00 | 0.00 | 84 | 1003.6 |
| 20260509142015 | 54 | 0 | 0.0 | 3.5 | 0.00 | 0.00 | 0.00 | 86 | 1003.8 |
| 20260509141540 | 54 | 8 | 0.0 | 6.1 | 0.00 | 0.00 | 0.00 | 86 | 1003.9 |
| 20260509141014 | 54 | 266 | 0.9 | 7.8 | 0.00 | 0.00 | 0.00 | 86 | 1004.1 |
| 20260509140516 | 54 | 196 | 2.6 | 11.3 | 0.00 | 0.00 | 0.00 | 87 | 1003.9 |
| 20260509140030 | 53 | 174 | 5.2 | 11.3 | 0.00 | 0.00 | 0.00 | 87 | 1003.4 |
| 20260509135515 | 53 | 161 | 6.1 | 11.3 | 0.00 | 0.00 | 0.00 | 87 | 1003.4 |
| 20260509135014 | 53 | 198 | 4.3 | 8.7 | 0.00 | 0.00 | 0.00 | 87 | 1003.8 |
| 20260509134533 | 53 | 179 | 3.5 | 9.6 | 0.00 | 0.00 | 0.00 | 88 | 1003.6 |
| 20260509134015 | 53 | 190 | 6.1 | 13.0 | 0.00 | 0.00 | 0.00 | 88 | 1003.8 |
| 20260509133515 | 53 | 181 | 5.2 | 13.0 | 0.00 | 0.00 | 0.00 | 88 | 1003.8 |
| 20260509133031 | 53 | 189 | 3.5 | 8.7 | 0.00 | 0.00 | 0.00 | 88 | 1003.9 |
| 20260509132514 | 53 | 160 | 2.6 | 11.3 | 0.00 | 0.00 | 0.00 | 89 | 1004.1 |
| 20260509132014 | 53 | 197 | 4.3 | 11.3 | 0.00 | 0.00 | 0.00 | 88 | 1004.1 |
| 20260509131537 | 53 | 150 | 6.1 | 11.3 | 0.00 | 0.00 | 0.00 | 88 | 1004.1 |
| 20260509131018 | 53 | 205 | 3.5 | 8.7 | 0.00 | 0.00 | 0.00 | 88 | 1004.1 |
| 20260509130515 | 53 | 160 | 3.5 | 10.4 | 0.00 | 0.00 | 0.00 | 88 | 1004.1 |
| 20260509130034 | 53 | 195 | 4.3 | 10.4 | 0.00 | 0.00 | 0.00 | 88 | 1004.1 |
| 20260509125518 | 53 | 208 | 5.2 | 9.6 | 0.00 | 0.00 | 0.00 | 88 | 1004.1 |
| 20260509125015 | 53 | 213 | 5.2 | 8.7 | 0.00 | 0.00 | 0.00 | 89 | 1004.0 |
| 20260509124535 | 52 | 179 | 4.3 | 12.2 | 0.00 | 0.00 | 0.00 | 89 | 1004.1 |
| 20260509124013 | 52 | 229 | 5.2 | 12.2 | 0.00 | 0.00 | 0.00 | 89 | 1004.2 |
| 20260509123513 | 52 | 180 | 2.6 | 7.8 | 0.00 | 0.00 | 0.00 | 90 | 1004.3 |
| 20260509123043 | 52 | 186 | 3.5 | 8.7 | 0.00 | 0.00 | 0.00 | 91 | 1004.5 |
| 20260509122514 | 52 | 176 | 2.6 | 10.4 | 0.00 | 0.00 | 0.00 | 92 | 1004.5 |
| 20260509122015 | 51 | 0 | 3.5 | 10.4 | 0.00 | 0.00 | 0.00 | 92 | 1004.4 |
| 20260509121535 | 51 | 174 | 5.2 | 10.4 | 0.00 | 0.00 | 0.00 | 93 | 1004.4 |
| 20260509121013 | 50 | 198 | 2.6 | 8.7 | 0.00 | 0.00 | 0.00 | 94 | 1004.5 |
| 20260509120515 | 50 | 191 | 1.7 | 7.0 | 0.00 | 0.00 | 0.00 | 94 | 1004.5 |
| 20260509120030 | 49 | 198 | 3.5 | 7.0 | 0.00 | 0.00 | 0.00 | 94 | 1004.4 |
| 20260509115514 | 49 | 188 | 2.6 | 5.2 | 0.00 | 0.00 | 0.00 | 94 | 1004.5 |
| 20260509115022 | 49 | 193 | 0.9 | 6.1 | 0.00 | 0.00 | 0.00 | 94 | 1004.4 |
| 20260509114530 | 49 | 207 | 2.6 | 6.1 | 0.00 | 0.00 | 0.00 | 94 | 1004.3 |
| 20260509114014 | 49 | 195 | 1.7 | 5.2 | 0.00 | 0.00 | 0.00 | 94 | 1004.3 |
| 20260509113515 | 49 | 169 | 1.7 | 6.1 | 0.00 | 0.00 | 0.00 | 94 | 1004.3 |
| 20260509113037 | 48 | 166 | 2.6 | 6.1 | 0.00 | 0.00 | 0.00 | 95 | 1004.3 |
| 20260509112515 | 48 | 162 | 1.7 | 3.5 | 0.00 | 0.00 | 0.00 | 95 | 1004.4 |
| 20260509112013 | 48 | 193 | 1.7 | 3.5 | 0.00 | 0.00 | 0.00 | 95 | 1004.5 |
| 20260509111541 | 48 | 209 | 0.9 | 1.7 | 0.00 | 0.00 | 0.00 | 95 | 1004.5 |
| 20260509111017 | 47 | 149 | 0.9 | 1.7 | 0.00 | 0.00 | 0.00 | 95 | 1004.5 |
| 20260509110517 | 47 | 188 | 0.0 | 1.7 | 0.00 | 0.00 | 0.00 | 95 | 1004.5 |
| 20260509110034 | 47 | 0 | 0.0 | 1.7 | 0.00 | 0.00 | 0.00 | 95 | 1004.5 |
| 20260509105514 | 46 | 156 | 0.9 | 1.7 | 0.00 | 0.00 | 0.00 | 95 | 1004.4 |
| 20260509105015 | 46 | 176 | 0.0 | 0.9 | 0.00 | 0.00 | 0.00 | 95 | 1004.5 |
| 20260509104531 | 46 | 0 | 0.0 | 1.7 | 0.00 | 0.00 | 0.00 | 95 | 1004.5 |
| 20260509104014 | 46 | 208 | 0.0 | 1.7 | 0.00 | 0.00 | 0.00 | 95 | 1004.6 |
| 20260509103519 | 45 | 0 | 0.9 | 1.7 | 0.00 | 0.00 | 0.00 | 95 | 1004.5 |
| 20260509103037 | 45 | 154 | 0.0 | 0.9 | 0.00 | 0.00 | 0.00 | 95 | 1004.6 |
| 20260509102513 | 45 | 165 | 0.0 | 0.9 | 0.00 | 0.00 | 0.00 | 95 | 1004.6 |
| 20260509102016 | 45 | 0 | 0.0 | 0.9 | 0.00 | 0.00 | 0.00 | 94 | 1004.6 |
| 20260509101533 | 45 | 0 | 0.0 | 0.0 | 0.00 | 0.00 | 0.00 | 94 | 1004.6 |
| 20260509101015 | 45 | 0 | 0.0 | 0.0 | 0.00 | 0.00 | 0.00 | 94 | 1004.7 |
| 20260509100515 | 45 | 0 | 0.0 | 0.0 | 0.00 | 0.00 | 0.00 | 94 | 1004.8 |
| 20260509100035 | 46 | 0 | 0.0 | 0.0 | 0.00 | 0.00 | 0.00 | 94 | 1004.7 |
| 20260509095514 | 46 | 0 | 0.0 | 0.0 | 0.00 | 0.00 | 0.00 | 94 | 1004.9 |
| 20260509095015 | 46 | 0 | 0.0 | 0.0 | 0.00 | 0.00 | 0.00 | 93 | 1005.0 |
| 20260509094538 | 46 | 0 | 0.0 | 0.0 | 0.00 | 0.00 | 0.00 | 93 | 1005.0 |
| 20260509094014 | 46 | 0 | 0.0 | 0.9 | 0.00 | 0.00 | 0.00 | 93 | 1005.0 |
| 20260509093514 | 46 | 0 | 0.0 | 0.9 | 0.00 | 0.00 | 0.00 | 93 | 1005.1 |
| 20260509093033 | 46 | 193 | 0.0 | 0.9 | 0.00 | 0.00 | 0.00 | 93 | 1005.2 |
| 20260509092513 | 46 | 0 | 0.0 | 1.7 | 0.00 | 0.00 | 0.00 | 93 | 1005.2 |
| 20260509092015 | 46 | 186 | 0.9 | 1.7 | 0.00 | 0.00 | 0.00 | 93 | 1005.3 |
| 20260509091534 | 46 | 174 | 0.0 | 1.7 | 0.00 | 0.00 | 0.00 | 92 | 1005.2 |
| 20260509091014 | 46 | 191 | 0.0 | 1.7 | 0.00 | 0.00 | 0.00 | 92 | 1005.2 |
| 20260509090517 | 45 | 177 | 0.0 | 0.9 | 0.00 | 0.00 | 0.00 | 92 | 1005.3 |
| 20260509090032 | 45 | 0 | 0.0 | 0.9 | 0.00 | 0.00 | 0.00 | 92 | 1005.2 |
| 20260509085517 | 45 | 0 | 0.0 | 1.7 | 0.00 | 0.00 | 0.00 | 91 | 1005.3 |
| 20260509085016 | 45 | 176 | 0.9 | 1.7 | 0.00 | 0.00 | 0.00 | 92 | 1005.3 |
| 20260509084531 | 45 | 167 | 0.9 | 1.7 | 0.00 | 0.00 | 0.00 | 92 | 1005.1 |
| 20260509084015 | 45 | 172 | 0.0 | 0.9 | 0.00 | 0.00 | 0.00 | 92 | 1005.3 |
| 20260509083513 | 44 | 165 | 0.0 | 0.9 | 0.00 | 0.00 | 0.00 | 91 | 1005.2 |
| 20260509083040 | 44 | 0 | 0.0 | 0.9 | 0.00 | 0.00 | 0.00 | 91 | 1005.2 |
| 20260509082513 | 44 | 0 | 0.0 | 0.0 | 0.00 | 0.00 | 0.00 | 91 | 1005.1 |
| 20260509082014 | 44 | 0 | 0.0 | 0.0 | 0.00 | 0.00 | 0.00 | 90 | 1005.2 |
| 20260509081534 | 44 | 0 | 0.0 | 0.0 | 0.00 | 0.00 | 0.00 | 90 | 1005.2 |
| 20260509081016 | 44 | 0 | 0.0 | 0.0 | 0.00 | 0.00 | 0.00 | 89 | 1005.1 |
| 20260509080517 | 44 | 0 | 0.0 | 0.0 | 0.00 | 0.00 | 0.00 | 89 | 1005.3 |
| 20260509080034 | 44 | 0 | 0.0 | 0.0 | 0.00 | 0.00 | 0.00 | 89 | 1005.3 |
| 20260509075515 | 44 | 0 | 0.0 | 0.0 | 0.00 | 0.00 | 0.00 | 89 | 1005.3 |
| 20260509075019 | 44 | 0 | 0.0 | 0.0 | 0.00 | 0.00 | 0.00 | 88 | 1005.3 |
| 20260509074532 | 44 | 0 | 0.0 | 0.0 | 0.00 | 0.00 | 0.00 | 88 | 1005.3 |
| 20260509074021 | 44 | 0 | 0.0 | 0.0 | 0.00 | 0.00 | 0.00 | 87 | 1005.3 |
| 20260509073516 | 45 | 0 | 0.0 | 0.0 | 0.00 | 0.00 | 0.00 | 87 | 1005.4 |
| 20260509073036 | 45 | 0 | 0.0 | 0.0 | 0.00 | 0.00 | 0.00 | 88 | 1005.6 |
| 20260509072516 | 45 | 0 | 0.0 | 0.0 | 0.00 | 0.00 | 0.00 | 86 | 1005.7 |
| 20260509072015 | 45 | 0 | 0.0 | 0.0 | 0.00 | 0.00 | 0.00 | 84 | 1005.7 |
| 20260509071532 | 46 | 0 | 0.0 | 0.0 | 0.00 | 0.00 | 0.00 | 84 | 1005.7 |
| 20260509071015 | 46 | 0 | 0.0 | 0.9 | 0.00 | 0.00 | 0.00 | 83 | 1005.7 |
| 20260509070513 | 46 | 0 | 0.0 | 0.9 | 0.00 | 0.00 | 0.00 | 82 | 1005.7 |
| 20260509070030 | 47 | 0 | 0.0 | 1.7 | 0.00 | 0.00 | 0.00 | 82 | 1005.8 |
| 20260509065520 | 47 | 169 | 0.0 | 1.7 | 0.00 | 0.00 | 0.00 | 81 | 1005.8 |
| 20260509065015 | 47 | 170 | 0.9 | 1.7 | 0.00 | 0.00 | 0.00 | 81 | 1005.8 |
| 20260509064532 | 47 | 186 | 0.9 | 1.7 | 0.00 | 0.00 | 0.00 | 81 | 1005.8 |
| 20260509064017 | 47 | 194 | 0.9 | 1.7 | 0.00 | 0.00 | 0.00 | 80 | 1005.9 |
| 20260509063513 | 47 | 199 | 0.9 | 1.7 | 0.00 | 0.00 | 0.00 | 79 | 1006.0 |
| 20260509063036 | 47 | 183 | 0.0 | 0.9 | 0.00 | 0.00 | 0.00 | 78 | 1006.0 |
| 20260509062515 | 47 | 176 | 0.0 | 0.9 | 0.00 | 0.00 | 0.00 | 77 | 1006.0 |
| 20260509062016 | 47 | 183 | 0.0 | 0.9 | 0.00 | 0.00 | 0.00 | 76 | 1006.0 |
| 20260509061542 | 47 | 177 | 0.0 | 1.7 | 0.00 | 0.00 | 0.00 | 75 | 1006.1 |
| 20260509061015 | 47 | 167 | 0.9 | 1.7 | 0.00 | 0.00 | 0.00 | 74 | 1006.0 |
| 20260509060516 | 47 | 191 | 0.0 | 1.7 | 0.00 | 0.00 | 0.00 | 73 | 1006.2 |
| 20260509060031 | 47 | 169 | 0.9 | 1.7 | 0.00 | 0.00 | 0.00 | 72 | 1006.3 |
| 20260509055520 | 47 | 179 | 0.9 | 2.6 | 0.00 | 0.00 | 0.00 | 70 | 1006.3 |
| 20260509055019 | 47 | 134 | 0.9 | 2.6 | 0.00 | 0.00 | 0.00 | 69 | 1006.4 |
| 20260509054529 | 47 | 169 | 0.9 | 2.6 | 0.00 | 0.00 | 0.00 | 69 | 1006.5 |
| 20260509054014 | 46 | 186 | 0.9 | 2.6 | 0.00 | 0.00 | 0.00 | 70 | 1006.5 |
| 20260509053515 | 46 | 172 | 0.9 | 2.6 | 0.00 | 0.00 | 0.00 | 70 | 1006.6 |
| 20260509053050 | 46 | 155 | 0.0 | 0.0 | 0.00 | 0.00 | 0.00 | 70 | 1006.5 |
| 20260509052514 | 46 | 0 | 0.0 | 0.9 | 0.00 | 0.00 | 0.00 | 69 | 1006.5 |
| 20260509052016 | 46 | 0 | 0.0 | 0.9 | 0.00 | 0.00 | 0.00 | 68 | 1006.5 |
| 20260509051531 | 47 | 193 | 0.0 | 0.9 | 0.00 | 0.00 | 0.00 | 68 | 1006.6 |
| 20260509051016 | 46 | 0 | 0.0 | 0.9 | 0.00 | 0.00 | 0.00 | 67 | 1006.7 |
| 20260509050514 | 47 | 0 | 0.0 | 0.9 | 0.00 | 0.00 | 0.00 | 69 | 1006.7 |
| 20260509050031 | 47 | 169 | 0.0 | 0.9 | 0.00 | 0.00 | 0.00 | 68 | 1006.7 |
| 20260509045515 | 47 | 158 | 0.0 | 0.9 | 0.00 | 0.00 | 0.00 | 69 | 1006.7 |
| 20260509045015 | 46 | 172 | 0.9 | 0.9 | 0.00 | 0.00 | 0.00 | 71 | 1006.8 |
| 20260509044533 | 46 | 164 | 0.0 | 0.9 | 0.00 | 0.00 | 0.00 | 73 | 1006.8 |
| 20260509044015 | 46 | 0 | 0.0 | 0.9 | 0.00 | 0.00 | 0.00 | 74 | 1006.9 |
| 20260509043516 | 46 | 152 | 0.0 | 0.9 | 0.00 | 0.00 | 0.00 | 78 | 1006.9 |
| 20260509043031 | 46 | 152 | 0.0 | 0.9 | 0.00 | 0.00 | 0.00 | 77 | 1006.9 |
| 20260509042513 | 45 | 0 | 0.0 | 0.0 | 0.00 | 0.00 | 0.00 | 79 | 1006.8 |
| 20260509042031 | 45 | 0 | 0.0 | 0.0 | 0.00 | 0.00 | 0.00 | 77 | 1006.9 |
| 20260509041530 | 45 | 0 | 0.0 | 0.0 | 0.00 | 0.00 | 0.00 | 77 | 1007.0 |
| 20260509041016 | 45 | 0 | 0.0 | 0.0 | 0.00 | 0.00 | 0.00 | 79 | 1007.0 |
| 20260509040515 | 46 | 0 | 0.0 | 0.0 | 0.00 | 0.00 | 0.00 | 78 | 1007.0 |
| 20260509040036 | 46 | 0 | 0.0 | 0.0 | 0.00 | 0.00 | 0.00 | 77 | 1007.0 |
| 20260509035514 | 46 | 0 | 0.0 | 0.0 | 0.00 | 0.00 | 0.00 | 78 | 1007.1 |
| 20260509035015 | 46 | 0 | 0.0 | 0.0 | 0.00 | 0.00 | 0.00 | 81 | 1007.0 |
| 20260509034535 | 46 | 0 | 0.0 | 0.0 | 0.00 | 0.00 | 0.00 | 81 | 1007.1 |
| 20260509034016 | 47 | 0 | 0.0 | 0.0 | 0.00 | 0.00 | 0.00 | 80 | 1007.1 |
| 20260509033515 | 47 | 0 | 0.0 | 0.0 | 0.00 | 0.00 | 0.00 | 78 | 1007.0 |
| 20260509033031 | 47 | 0 | 0.0 | 0.0 | 0.00 | 0.00 | 0.00 | 79 | 1007.0 |
| 20260509032515 | 47 | 0 | 0.0 | 0.0 | 0.00 | 0.00 | 0.00 | 80 | 1007.1 |
| 20260509032020 | 47 | 0 | 0.0 | 0.0 | 0.00 | 0.00 | 0.00 | 77 | 1007.1 |
| 20260509031533 | 48 | 0 | 0.0 | 0.0 | 0.00 | 0.00 | 0.00 | 78 | 1007.2 |
| 20260509031014 | 48 | 0 | 0.0 | 0.0 | 0.00 | 0.00 | 0.00 | 75 | 1007.4 |
| 20260509030518 | 48 | 0 | 0.0 | 0.0 | 0.00 | 0.00 | 0.00 | 72 | 1007.4 |
| 20260509030030 | 49 | 0 | 0.0 | 0.0 | 0.00 | 0.00 | 0.00 | 73 | 1007.5 |
| 20260509025515 | 49 | 0 | 0.0 | 0.0 | 0.00 | 0.00 | 0.00 | 70 | 1007.5 |
| 20260509025013 | 49 | 0 | 0.0 | 0.0 | 0.00 | 0.00 | 0.00 | 67 | 1007.6 |
| 20260509024535 | 50 | 0 | 0.0 | 0.0 | 0.00 | 0.00 | 0.00 | 64 | 1007.5 |
| 20260509024016 | 50 | 0 | 0.0 | 0.0 | 0.00 | 0.00 | 0.00 | 68 | 1007.5 |
| 20260509023515 | 51 | 0 | 0.0 | 0.0 | 0.00 | 0.00 | 0.00 | 64 | 1007.6 |
| 20260509023035 | 51 | 0 | 0.0 | 0.0 | 0.00 | 0.00 | 0.00 | 58 | 1007.5 |
| 20260509022520 | 52 | 0 | 0.0 | 0.0 | 0.00 | 0.00 | 0.00 | 58 | 1007.4 |
| 20260509022015 | 52 | 0 | 0.0 | 0.0 | 0.00 | 0.00 | 0.00 | 60 | 1007.4 |
| 20260509021530 | 53 | 0 | 0.0 | 0.0 | 0.00 | 0.00 | 0.00 | 55 | 1007.4 |
| 20260509021013 | 53 | 0 | 0.0 | 0.0 | 0.00 | 0.00 | 0.00 | 51 | 1007.5 |
| 20260509020516 | 53 | 0 | 0.0 | 0.0 | 0.00 | 0.00 | 0.00 | 47 | 1007.5 |
| 20260509020036 | 53 | 0 | 0.0 | 0.0 | 0.00 | 0.00 | 0.00 | 47 | 1007.5 |
| 20260509015514 | 53 | 0 | 0.0 | 0.0 | 0.00 | 0.00 | 0.00 | 48 | 1007.4 |
| 20260509015015 | 54 | 0 | 0.0 | 0.0 | 0.00 | 0.00 | 0.00 | 50 | 1007.4 |
| 20260509014535 | 54 | 0 | 0.0 | 0.0 | 0.00 | 0.00 | 0.00 | 49 | 1007.4 |
| 20260509014021 | 55 | 0 | 0.0 | 0.9 | 0.00 | 0.00 | 0.00 | 50 | 1007.3 |
| 20260509013521 | 55 | 0 | 0.0 | 0.9 | 0.00 | 0.00 | 0.00 | 48 | 1007.2 |
| 20260509013035 | 55 | 0 | 0.0 | 0.9 | 0.00 | 0.00 | 0.00 | 50 | 1007.3 |
| 20260509012515 | 56 | 0 | 0.0 | 0.9 | 0.00 | 0.00 | 0.00 | 48 | 1007.1 |
| 20260509012015 | 56 | 0 | 0.0 | 0.9 | 0.00 | 0.00 | 0.00 | 45 | 1007.1 |
| 20260509011531 | 56 | 0 | 0.0 | 0.9 | 0.00 | 0.00 | 0.00 | 45 | 1007.0 |
| 20260509011015 | 56 | 0 | 0.0 | 0.0 | 0.00 | 0.00 | 0.00 | 49 | 1006.9 |
| 20260509010514 | 57 | 0 | 0.0 | 0.0 | 0.00 | 0.00 | 0.00 | 44 | 1006.9 |
| 20260509010032 | 58 | 0 | 0.0 | 0.0 | 0.00 | 0.00 | 0.00 | 44 | 1006.8 |
| 20260509005516 | 58 | 0 | 0.0 | 0.9 | 0.00 | 0.00 | 0.00 | 40 | 1006.7 |
| 20260509005015 | 59 | 0 | 0.0 | 0.9 | 0.00 | 0.00 | 0.00 | 40 | 1006.6 |
| 20260509004537 | 59 | 0 | 0.0 | 0.0 | 0.00 | 0.00 | 0.00 | 39 | 1006.6 |
| 20260509004016 | 60 | 0 | 0.0 | 0.9 | 0.00 | 0.00 | 0.00 | 37 | 1006.7 |
| 20260509003517 | 60 | 0 | 0.0 | 1.7 | 0.00 | 0.00 | 0.00 | 36 | 1006.7 |
| 20260509003035 | 60 | 265 | 0.0 | 1.7 | 0.00 | 0.00 | 0.00 | 35 | 1006.6 |
| 20260509002516 | 60 | 0 | 0.0 | 0.9 | 0.00 | 0.00 | 0.00 | 35 | 1006.6 |
| 20260509002014 | 61 | 259 | 0.0 | 2.6 | 0.00 | 0.00 | 0.00 | 34 | 1006.6 |
| 20260509001531 | 61 | 0 | 0.0 | 2.6 | 0.00 | 0.00 | 0.00 | 35 | 1006.6 |
| 20260509001015 | 61 | 0 | 0.0 | 5.2 | 0.00 | 0.00 | 0.00 | 34 | 1006.5 |
| 20260509000516 | 61 | 240 | 0.9 | 6.1 | 0.00 | 0.00 | 0.00 | 36 | 1006.5 |
| 20260509000031 | 62 | 0 | 1.7 | 6.1 | 0.00 | 0.00 | 0.00 | 35 | 1006.5 |
| 20260508235514 | 62 | 198 | 1.7 | 6.1 | 0.00 | 0.00 | 0.00 | 35 | 1006.5 |
| 20260508235016 | 62 | 184 | 3.5 | 6.1 | 0.00 | 0.00 | 0.00 | 32 | 1006.5 |
| 20260508234532 | 62 | 219 | 1.7 | 6.1 | 0.00 | 0.00 | 0.00 | 32 | 1006.5 |
| 20260508234014 | 62 | 162 | 0.0 | 6.1 | 0.00 | 0.00 | 0.00 | 34 | 1006.4 |
| 20260508233515 | 62 | 258 | 1.7 | 6.1 | 0.00 | 0.00 | 0.00 | 34 | 1006.5 |
| 20260508233034 | 62 | 233 | 0.9 | 5.2 | 0.00 | 0.00 | 0.00 | 34 | 1006.5 |
| 20260508232515 | 62 | 236 | 0.0 | 5.2 | 0.00 | 0.00 | 0.00 | 34 | 1006.5 |
| 20260508232016 | 62 | 263 | 2.6 | 8.7 | 0.00 | 0.00 | 0.00 | 33 | 1006.6 |
| 20260508231529 | 62 | 221 | 2.6 | 8.7 | 0.00 | 0.00 | 0.00 | 32 | 1006.7 |
| 20260508231016 | 62 | 224 | 2.6 | 8.7 | 0.00 | 0.00 | 0.00 | 33 | 1006.6 |
| 20260508230516 | 62 | 257 | 2.6 | 10.4 | 0.00 | 0.00 | 0.00 | 33 | 1006.6 |
| 20260508230033 | 62 | 221 | 1.7 | 10.4 | 0.00 | 0.00 | 0.00 | 31 | 1006.6 |
| 20260508225521 | 63 | 271 | 6.1 | 10.4 | 0.00 | 0.00 | 0.00 | 31 | 1006.5 |
| 20260508225014 | 63 | 264 | 3.5 | 8.7 | 0.00 | 0.00 | 0.00 | 31 | 1006.6 |
| 20260508224531 | 63 | 245 | 2.6 | 8.7 | 0.00 | 0.00 | 0.00 | 32 | 1006.7 |
| 20260508224016 | 63 | 142 | 2.6 | 8.7 | 0.00 | 0.00 | 0.00 | 32 | 1006.7 |
| 20260508223516 | 63 | 200 | 2.6 | 8.7 | 0.00 | 0.00 | 0.00 | 32 | 1006.7 |
| 20260508223039 | 63 | 247 | 3.5 | 8.7 | 0.00 | 0.00 | 0.00 | 32 | 1006.8 |
| 20260508222514 | 63 | 202 | 0.0 | 6.1 | 0.00 | 0.00 | 0.00 | 32 | 1006.8 |
| 20260508222018 | 62 | 184 | 0.9 | 6.1 | 0.00 | 0.00 | 0.00 | 34 | 1006.8 |
| 20260508221535 | 61 | 163 | 2.6 | 6.1 | 0.00 | 0.00 | 0.00 | 33 | 1006.8 |
| 20260508221016 | 62 | 0 | 2.6 | 8.7 | 0.00 | 0.00 | 0.00 | 32 | 1006.9 |
| 20260508220517 | 62 | 243 | 3.5 | 10.4 | 0.00 | 0.00 | 0.00 | 32 | 1006.9 |
| 20260508220038 | 63 | 198 | 3.5 | 10.4 | 0.00 | 0.00 | 0.00 | 32 | 1006.9 |
| 20260508215514 | 63 | 200 | 5.2 | 13.9 | 0.00 | 0.00 | 0.00 | 31 | 1007.0 |